STARLINK-11743 [DTC]

Last updated on Thu Jul 03 2025 00:02:06 GMT+0000 (Coordinated Universal Time)

1 64379U 25127K 25183.04392853 .00076475 00000+0 31897-3 0 9998 2 64379 43.0023 157.9202 0001154 244.3467 115.7287 15.84721834 4053
UTC large
Height (km)
Speed (km/s)
/
Latitude / Longitude
Inclination (degrees)
Orbital Period (minutes)
Azimuth
Elevation
Range (km)
Doppler Factor

Next 0 passes for location: London (51.5072 / 0.1276)

Sorry there are no passes over London.